Location: Santa Clara
(37.3540°N, 121.9540°W)
Time: 17:06:18
(UTC-08:00)

ISS - Pass Details

Date: 26 January 2026
Orbit: 413 x 429 km, 51.6° (Epoch: 10 February)

Event Time Altitude Azimuth Distance (km) Brightness Sun altitude
Rises 18:18:12 0° 320° (NW) 2,364 0.4 -10.7°
Reaches altitude 10° 18:20:45 10° 340° (NNW) 1,502 -0.9 -11.1°
Maximum altitude 18:23:12 18° 26° (NNE) 1,095 -2.0 -11.6°
Enters shadow 18:24:09 17° 49° (NE) 1,167 -2.0 -11.8°
